Location: Excel
(51.3833°N, 110.5667°W)
Time: 20:38:24
(UTC+00:00)

Envisat - Pass Details

Date: 05 December 2021
Orbit: 764 x 766 km, 98.2° (Epoch: 26 January)

Event Time Altitude Azimuth Distance (km) Brightness Sun altitude
Rises 01:12:17 0° 226° (SW) 3,225 7.3 -17.2°
Reaches altitude 10° 01:16:36 10° 261° (W) 2,307 6.8 -17.9°
Maximum altitude 01:17:59 11° 277° (W) 2,239 6.5 -18.1°
Drops below altitude 10° 01:19:22 10° 293° (WNW) 2,312 6.3 -18.3°
Sets 01:23:44 0° 329° (NNW) 3,247 6.5 -19.0°
